This is the latest recevied weather packets stored in our database for station/object W1GK. If no packets are shown the sender has not sent any weather packets the latest 10 day(s).
| Time | Temp. | Humidity | Pressure | Rain* | Wind** | Luminosity | Snow |
|---|---|---|---|---|---|---|---|
| 1777562998 | 20.56° C | 23% | 1014.7 hPa | 0 mm | - | 469 W/m² | - |
| 1777562397 | 20.56° C | 23% | 1014.6 hPa | 0 mm | - | 438 W/m² | - |
| 1777561798 | 20° C | 23% | 1014.7 hPa | 0 mm | - | 408 W/m² | - |
| 1777561201 | 20° C | 24% | 1014.7 hPa | 0 mm | - | 376 W/m² | - |
| 1777560598 | 19.44° C | 24% | 1014.6 hPa | 0 mm | - | 343 W/m² | - |
| 1777559999 | 18.89° C | 25% | 1014.5 hPa | 0 mm | - | 313 W/m² | - |
| 1777559398 | 17.78° C | 26% | 1014.5 hPa | 0 mm | - | 279 W/m² | - |
| 1777558799 | 16.11° C | 28% | 1014.5 hPa | 0 mm | - | 246 W/m² | - |
| 1777558198 | 15.56° C | 28% | 1014.4 hPa | 0 mm | - | 213 W/m² | - |
| 1777557600 | 14.44° C | 29% | 1014.3 hPa | 0 mm | - | 183 W/m² | - |
| 1777556996 | 13.89° C | 30% | 1014.2 hPa | 0 mm | - | 153 W/m² | - |
| 1777556397 | 13.33° C | 30% | 1014.1 hPa | 0 mm | - | 123 W/m² | - |
| 1777555800 | 13.33° C | 30% | 1014 hPa | 0 mm | - | 30 W/m² | - |
| 1777555198 | 13.33° C | 30% | 1013.9 hPa | 0 mm | - | 18 W/m² | - |
| 1777554596 | 13.33° C | 29% | 1013.8 hPa | 0 mm | - | 14 W/m² | - |
| 1777553999 | 13.33° C | 28% | 1013.8 hPa | 0 mm | - | 9 W/m² | - |
| 1777553397 | 13.33° C | 28% | 1013.7 hPa | 0 mm | - | 5 W/m² | - |
| 1777552799 | 13.89° C | 27% | 1013.6 hPa | 0 mm | - | 0 W/m² | - |
| 1777552199 | 13.89° C | 27% | 1013.5 hPa | 0 mm | - | 0 W/m² | - |
| 1777551597 | 13.89° C | 28% | 1013.5 hPa | 0 mm | - | 0 W/m² | - |
| 1777550997 | 14.44° C | 26% | 1013.5 hPa | 0 mm | - | 0 W/m² | - |
| 1777550397 | 14.44° C | 25% | 1013.5 hPa | 0 mm | - | 0 W/m² | - |
| 1777549797 | 15° C | 24% | 1013.4 hPa | 0 mm | - | 0 W/m² | - |
| 1777549196 | 15° C | 24% | 1013.4 hPa | 0 mm | - | 0 W/m² | - |
| 1777548600 | 15° C | 23% | 1013.3 hPa | 0 mm | - | 0 W/m² | - |
* Rain latest hour (hover to see other rain measurements)
** Current wind speed in m/s (hover to see current wind gust speed)